Regional Weather Roundup
Issued by NWS Sioux Falls, SD

Home | Current Version | Previous Version | Graphics & Text | Print | Product List | Glossary On
Versions: 1 2 3 4 5 6 7 8 9 10 11 12 13 14 15 16 17 18 19 20 21 22 23 24 25 26 27 28 29 30 31 32 33 34 35 36 37 38 39 40 41 42 43 44 45 46 47 48 49 50
000
ASUS43 KFSD 061302
RWRFSD

WEATHER ROUNDUP FOR SE SOUTH DAKOTA/SW MINNESOTA/NW IOWA
NATIONAL WEATHER SERVICE SIOUX FALLS SD
700 AM CST SAT FEB 06 2016

NOTE: "FAIR" INDICATES FEW OR NO CLOUDS BELOW 12,000 FEET WITH NO
SIGNIFICANT WEATHER AND OR OBSTRUCTIONS TO VISIBILITY.


SDZ038>040-050-052>070-061400-
SOUTHEAST SOUTH DAKOTA

CITY           SKY/WX    TMP DP  RH WIND       PRES   REMARKS
BROOKINGS      CLOUDY    20  18  92 S9        30.06F WCI   9
CHAMBERLAIN    CLEAR     23  19  87 S6        30.06F WCI  15
HURON          CLOUDY    23  19  85 S12       30.04F WCI  12
MADISON        FAIR      23  23 100 SW10      30.08F WCI  12
MITCHELL       PTCLDY    26  21  81 SW10      30.09F WCI  16
SIOUX FALLS    CLOUDY    19  16  88 S6        30.13S WCI  11
WINNER         FAIR      27  16  63 SW12      30.06F WCI  17
YANKTON        CLOUDY    19  16  86 S5        30.15F WCI  13
$$

MNZ071-072-080-081-089-090-097-098-061400-
SOUTHWEST MINNESOTA

CITY           SKY/WX    TMP DP  RH WIND       PRES   REMARKS
FAIRMONT       CLOUDY    25  21  86 SW12      30.13F WCI  14
JACKSON        FOG       25  21  86 SW12      30.12F VSB 3/4 WCI  14
LUVERNE        FOG       21  18  86 S3        30.14S VSB 1/2
MARSHALL         N/A    N/A N/A N/A MISG        N/A
MONTEVIDEO     CLOUDY    21  19  93 SW6       30.07F WCI  14
PIPESTONE        N/A     21  16  79 SW5       30.10S WCI  15
REDWOOD FALLS  CLOUDY    21  18  88 S7        30.10S WCI  12
TRACY          PTCLDY    26  23  87 SW16      30.08S WCI  14
WINDOM         CLOUDY    21  21 100 SW6       30.11F FOG     WCI  14
WORTHINGTON    CLOUDY    19  18  93 SW13      30.13S WCI   7
$$

IAZ001>003-012>014-020>022-031-032-NEZ013-014-SDZ071-061400-
NORTHWEST IOWA

CITY           SKY/WX    TMP DP  RH WIND       PRES   REMARKS
ESTHERVILLE    FOG       24  24 100 SW12      30.15F VSB 3/4 WCI  13
SIOUX CITY     HAZE      15  10  80 E8        30.21S VSB 3/4 WCI   4
SPENCER        FOG       26  22  84 SW12      30.16F VSB 1/4 WCI  16
STORM LAKE     FOG       25  25 100 MISG      30.18F VSB<1/4
$$

ABBREVIATIONS USED IN REMARKS
   TC - TEMPERATURE IN CELSIUS
  WCI - WIND CHILL INDEX
   HX - HEAT INDEX
  VSB - VISIBILITY




USA.gov is the U.S. government's official web portal to all federal, state and local government web resources and services.